Theta_e
349 350 350 350 350 350 351 351 351 350 350 349 349 350 349 349 349 348 346 345 346 346 346 347 349 346 347 347 345 345 345 345 345 345 344 344 344 343 342 343 343 343 344 345 345 343 343 343 343 342 341 343 342 344 342 341 341 340 338 337 336 334
350 350 351 353 351 349 349 347 349 350 350 350 350 350 352 352 348 350 346 349 349 348 345 346 347 347 346 346 346 344 345 344 344 344 344 343 343 343 342 341 340 342 344 345 344 345 344 344 343 343 344 342 341 342 341 341 339 337 336 337 337 336
353 350 348 350 350 348 347 347 347 347 348 348 348 350 351 351 350 345 344 343 348 348 346 348 349 345 346 345 346 344 344 344 344 343 342 342 342 342 342 340 339 338 341 344 346 343 344 342 343 343 344 343 347 341 341 340 339 338 335 334 333 336
349 350 348 348 350 346 346 346 344 345 347 349 348 345 347 350 347 347 345 343 342 343 345 347 345 345 344 346 345 344 343 342 342 342 342 342 343 342 341 341 338 338 338 343 343 343 343 343 342 344 346 345 341 340 340 341 338 338 337 333 332 335
349 350 347 348 348 344 344 343 342 345 348 346 346 345 345 345 344 344 343 340 338 339 340 344 345 345 344 343 342 342 342 342 341 341 341 340 338 339 339 335 335 335 338 339 339 342 342 342 344 342 343 343 342 343 341 341 339 338 337 337 337 336
348 345 345 346 345 342 342 341 344 348 348 345 344 345 346 345 346 345 342 340 339 340 342 343 345 345 345 342 340 338 337 337 336 336 339 337 336 335 335 336 336 335 336 338 339 341 341 345 342 347 343 344 342 342 341 340 337 337 338 338 338 338
343 343 341 345 346 342 343 348 348 349 348 344 342 342 342 344 344 344 344 346 342 344 343 345 347 346 344 342 339 340 343 340 338 337 341 338 339 338 339 337 336 337 337 337 337 339 341 345 342 337 340 340 341 340 341 340 338 338 339 338 339 338
340 338 339 342 347 341 344 345 348 345 349 346 345 345 344 344 346 344 344 345 343 345 346 342 343 344 343 344 343 345 344 340 342 339 342 340 338 338 336 337 338 334 335 337 336 337 338 348 344 342 344 339 339 341 341 339 340 340 339 338 339 339
338 337 339 345 343 345 345 345 345 348 345 346 345 345 344 343 341 342 344 343 345 344 341 340 341 344 343 343 343 344 341 340 341 338 339 339 339 338 338 336 337 336 337 336 334 336 333 339 341 341 339 338 339 339 341 341 342 339 337 338 339 340
338 342 344 343 343 341 348 344 342 346 344 346 344 344 342 344 345 347 346 345 344 343 339 340 340 340 343 341 340 342 343 341 340 340 343 343 342 340 339 339 337 337 334 334 336 336 337 338 339 340 337 336 338 340 341 342 340 344 339 339 339 340
340 342 344 342 344 344 345 343 344 346 347 342 342 341 340 343 347 346 347 344 344 342 342 341 337 340 343 341 343 343 342 341 340 341 344 343 345 343 342 340 340 338 338 335 335 333 334 341 342 341 338 336 337 341 340 340 341 342 341 339 339 340
343 344 345 342 343 342 343 342 344 345 346 341 341 339 341 343 342 346 344 344 343 343 341 341 344 342 343 343 343 344 344 343 342 342 343 342 343 343 342 340 342 343 343 341 338 336 337 339 338 342 340 338 341 340 338 339 338 341 340 340 338 338
343 346 345 342 342 343 343 343 342 344 341 344 346 343 339 341 343 342 344 343 342 342 344 346 346 345 344 343 343 344 344 344 343 344 345 344 344 345 343 342 342 342 341 342 339 340 336 339 339 341 339 339 341 340 337 337 341 341 340 340 340 339
344 344 344 343 343 343 343 343 344 343 344 344 344 343 343 341 342 342 341 342 341 346 346 345 346 345 345 345 343 343 343 343 343 343 344 345 342 343 341 340 340 340 338 339 337 338 336 336 339 339 340 340 342 342 337 340 341 341 339 338 341 340
346 344 344 343 342 342 343 341 341 343 344 346 344 343 344 342 344 342 343 344 346 345 345 345 346 345 345 343 343 343 342 342 344 343 340 343 342 342 342 340 337 337 337 341 343 339 337 338 342 339 342 345 340 339 336 337 338 340 337 338 337 339
344 343 343 344 342 342 342 342 342 342 343 346 342 341 341 344 343 344 346 344 345 345 346 345 346 347 345 343 341 342 342 344 342 343 344 343 344 340 341 340 339 343 340 338 336 339 341 341 338 338 339 339 339 336 337 337 339 338 338 337 339 337
342 342 342 342 341 342 342 341 342 342 342 344 343 341 341 344 347 341 342 341 344 344 345 344 346 346 344 342 339 339 340 344 345 344 342 344 340 339 340 340 340 340 340 335 334 334 339 338 336 337 339 337 335 336 337 339 340 340 338 335 336 337
343 343 342 341 341 341 341 341 342 342 343 342 343 341 341 343 340 345 340 341 344 345 345 345 345 345 346 342 341 340 342 345 344 343 342 341 340 339 340 341 339 340 339 337 335 335 334 336 336 336 336 334 335 337 338 337 336 337 336 334 335 335
343 344 342 341 340 341 341 343 342 341 342 343 343 341 343 342 341 342 341 345 345 345 345 345 346 345 345 342 341 341 343 345 344 342 341 339 338 338 340 341 339 339 341 337 337 335 335 335 335 336 334 333 336 337 338 336 336 337 337 337 335 335
343 343 342 341 339 338 340 339 337 338 339 341 341 341 343 342 343 341 341 341 343 345 345 346 345 346 345 342 341 341 343 344 342 341 339 337 336 336 339 340 339 338 338 336 336 338 336 335 335 334 332 335 337 335 336 335 335 337 336 338 336 336
342 342 339 337 337 336 336 336 338 336 337 340 339 342 340 340 341 342 340 340 344 343 345 345 344 344 344 342 343 341 342 342 341 339 339 339 338 338 340 340 338 338 337 334 334 338 336 335 331 330 334 333 334 333 334 334 334 336 338 339 339 339
340 340 338 338 336 336 337 337 335 336 338 334 340 338 338 340 340 341 342 342 344 344 345 345 345 344 343 342 341 340 341 340 340 340 341 341 341 339 338 338 337 335 337 333 334 334 337 335 329 327 325 326 331 333 334 335 334 333 332 333 335 336
337 338 337 338 337 335 339 335 338 340 339 338 340 340 336 339 340 340 343 344 345 344 343 343 345 344 344 342 342 341 340 340 340 341 339 338 338 339 338 337 337 334 333 334 334 337 337 337 329 330 330 327 321 323 325 332 332 334 333 334 335 335
338 338 338 338 337 338 338 336 339 340 342 341 337 339 342 343 338 340 342 344 344 345 344 343 343 342 343 343 341 341 342 340 339 339 341 339 338 337 338 337 336 336 333 331 329 330 335 336 334 330 323 322 324 322 320 323 324 330 335 332 332 330
338 337 337 338 338 339 336 336 338 338 338 336 337 338 337 338 337 341 340 342 342 345 344 342 341 338 336 339 340 340 342 340 339 339 339 337 336 336 337 337 336 336 334 331 328 331 334 333 334 334 329 323 322 318 321 323 325 327 332 330 330 332
339 338 338 338 339 340 336 335 332 330 327 329 328 332 332 334 335 338 337 342 343 343 343 342 341 340 339 340 341 343 343 341 340 339 339 336 337 336 335 336 336 337 335 336 334 330 330 335 337 335 335 333 332 322 321 324 323 318 330 330 330 332
339 338 339 338 340 341 337 336 334 332 332 330 327 333 336 341 338 338 339 341 342 343 342 343 342 341 341 339 342 343 343 343 342 342 341 340 338 338 337 336 337 336 335 335 336 331 330 332 334 336 335 336 334 334 331 324 322 322 320 324 332 331
339 338 339 339 340 338 335 335 335 336 334 335 332 334 335 340 340 339 339 340 342 342 342 342 342 340 340 339 339 338 339 338 337 336 335 335 335 334 338 338 339 338 335 336 336 333 331 332 327 329 333 333 334 333 333 332 331 326 323 318 320 327
339 339 339 339 340 341 337 335 334 335 333 332 333 336 336 338 338 339 340 340 339 339 340 341 340 339 338 338 338 338 338 337 337 337 336 334 335 334 334 337 338 337 336 336 336 335 332 331 331 330 331 331 331 331 331 332 332 329 323 319 320 320
339 338 339 338 339 339 340 340 337 337 334 335 338 336 337 335 336 339 339 338 338 337 337 338 339 339 339 338 337 338 338 337 337 337 335 335 335 335 336 337 338 338 337 336 337 337 335 333 332 331 331 332 331 327 326 327 329 329 326 325 320 319
339 338 340 340 339 338 338 340 338 337 335 332 331 336 337 335 337 337 336 336 335 335 336 335 335 337 337 337 338 337 337 337 338 337 335 335 336 334 336 338 339 339 338 336 335 335 336 336 335 335 333 332 331 330 327 325 325 329 325 321 322 322
339 339 338 340 338 332 335 336 337 336 333 332 333 333 333 332 336 335 335 333 333 334 333 335 336 335 335 336 337 336 337 336 336 337 335 336 337 337 338 338 338 338 336 336 336 336 336 335 335 333 334 332 331 331 332 330 330 331 327 326 323 322
333 340 338 335 336 334 335 334 334 331 329 330 334 335 334 332 334 333 333 332 333 332 333 333 334 334 335 336 335 336 336 333 334 336 336 335 337 338 338 338 337 335 336 335 336 336 334 334 335 334 332 334 332 330 332 333 331 331 330 327 326 322
334 339 337 335 334 333 331 331 333 333 330 331 334 335 335 333 333 333 333 332 332 333 332 333 334 334 335 335 334 335 335 334 334 334 335 335 334 339 339 337 339 337 336 336 336 336 335 335 336 335 334 333 334 333 332 332 333 332 330 327 327 323
329 330 331 331 331 330 332 333 333 333 334 335 334 336 336 335 334 332 333 333 333 334 333 334 333 335 335 335 335 334 334 334 333 334 334 335 334 334 338 338 337 337 337 336 336 336 334 333 334 333 335 335 333 334 334 333 335 333 331 329 329 327
327 328 325 326 330 329 333 332 337 333 332 334 335 333 334 334 334 334 334 333 334 334 333 333 334 335 334 335 334 333 334 333 334 334 335 334 334 332 333 333 334 335 336 335 336 336 336 335 335 335 335 336 335 333 334 334 333 332 333 332 332 332
326 328 328 328 330 331 335 335 337 335 338 336 334 333 332 334 334 335 335 334 333 334 334 334 334 335 334 334 333 334 332 333 333 333 333 333 332 331 333 335 335 335 334 335 336 335 335 335 334 336 336 337 335 333 333 334 332 332 334 335 336 333
Wind_Speed
15 16 14 13 12 13 13 14 12 15 15 15 15 15 13 14 15 15 14 14 14 12 11 10 11 10 14 11 11 13 13 13 13 12 11 10 9 6 4 6 7 7 6 8 8 9 9 6 6 7 6 7 7 8 4 3 6 7 8 8 9 9
13 15 12 10 10 11 12 12 12 12 12 14 15 15 12 11 12 11 15 12 9 7 7 7 8 10 9 11 12 13 13 13 11 12 11 10 9 6 3 3 5 7 7 7 11 7 7 6 8 7 7 7 7 1 2 5 5 6 8 8 8 9
15 14 15 11 11 11 13 11 12 12 10 12 13 11 9 10 7 10 10 8 5 4 4 5 5 6 8 11 12 13 13 13 12 11 10 9 8 8 5 3 4 5 6 8 8 4 5 6 6 8 7 6 4 3 3 4 5 6 8 8 7 8
13 15 14 11 10 11 11 10 10 10 10 9 11 9 6 6 5 6 8 8 3 1 4 4 6 9 11 10 11 13 13 13 12 12 12 9 8 8 8 6 5 4 6 7 4 5 5 6 5 5 4 3 3 5 5 4 5 6 8 9 8 8
14 11 11 9 11 11 11 10 9 9 9 10 7 6 5 3 1 5 8 9 5 4 3 5 5 6 6 8 9 9 9 8 8 8 12 7 7 6 7 7 6 6 6 5 5 5 4 5 4 4 2 3 4 4 4 5 6 6 7 7 8 8
11 11 7 3 5 10 10 9 9 8 8 9 8 3 5 4 3 5 8 8 6 5 6 5 6 6 6 7 7 8 7 7 7 8 9 7 7 8 9 8 8 7 5 5 5 3 5 4 3 2 5 4 5 4 4 6 7 5 7 7 8 8
6 5 6 2 3 7 6 5 8 8 8 9 6 3 4 3 5 7 6 6 9 7 5 5 6 7 7 6 6 6 5 6 7 6 6 5 6 7 7 5 5 5 5 7 6 5 5 5 2 2 9 6 5 4 4 6 6 6 7 8 8 9
8 6 2 4 4 5 5 5 6 8 7 9 7 5 5 5 5 7 6 6 7 6 6 6 5 5 5 4 4 6 7 7 5 5 3 4 4 4 4 3 5 7 8 7 6 5 5 5 6 9 7 5 4 4 3 6 6 7 7 8 8 8
8 9 5 1 2 3 3 4 7 7 8 8 5 5 6 5 2 7 7 8 8 6 4 3 4 6 6 8 7 6 5 5 5 6 6 5 5 5 4 5 5 6 4 4 5 5 4 2 6 7 6 2 3 3 3 6 7 7 6 6 7 9
4 7 6 6 6 5 5 6 7 7 8 8 5 4 7 4 6 7 7 7 7 5 4 2 3 8 9 6 6 5 4 4 3 4 4 4 3 4 4 5 4 6 7 8 6 5 4 3 8 4 4 5 2 3 3 8 6 4 7 7 7 9
7 6 5 7 7 6 7 6 7 6 7 8 6 5 7 6 5 5 6 6 7 7 7 8 11 9 6 6 5 5 4 4 4 4 3 4 3 3 3 3 4 5 4 5 4 3 6 6 0 1 4 1 3 1 4 2 12 4 5 7 8 8
6 5 5 6 5 7 7 8 8 7 6 9 10 6 4 6 7 4 5 6 5 6 11 12 8 7 7 6 6 5 5 4 4 4 4 4 4 3 3 2 2 2 3 4 5 7 7 5 5 1 2 5 2 4 1 6 8 4 5 7 8 8
6 6 6 8 8 8 7 7 8 7 6 4 7 11 8 5 4 5 5 6 5 10 8 5 5 6 7 6 6 5 4 4 4 4 4 4 4 4 3 3 3 2 3 4 4 3 2 7 6 4 3 4 2 1 2 3 7 6 6 3 6 7
8 8 8 8 6 7 7 7 7 7 7 7 6 6 10 11 7 6 5 8 11 8 5 6 6 6 5 6 5 4 5 4 3 4 3 3 4 3 4 5 4 4 4 4 4 4 2 4 6 5 1 3 3 3 3 7 2 4 7 5 3 5
10 10 9 8 8 7 8 8 7 7 7 7 7 7 6 8 12 12 12 9 7 7 5 7 6 5 5 5 6 5 4 5 4 3 4 3 4 4 4 4 5 5 3 4 4 5 8 2 4 4 3 2 6 6 5 0 3 2 3 3 3 4
11 10 9 8 8 7 8 8 7 6 7 7 7 7 7 7 6 6 7 8 7 6 7 7 6 5 5 6 6 5 4 4 5 4 3 3 3 4 3 3 2 3 2 3 5 3 3 2 3 3 1 2 7 3 4 0 1 2 3 1 2 2
10 11 8 8 8 8 7 8 7 6 7 7 6 6 7 6 0 5 7 7 6 7 6 7 7 6 5 5 5 5 5 5 4 3 3 3 4 3 3 2 1 2 5 2 5 11 7 6 2 2 2 3 2 4 1 0 1 4 4 4 2 3
11 9 8 8 9 8 7 8 7 7 7 7 7 7 6 4 8 7 6 7 8 7 6 7 7 6 4 5 5 4 5 5 4 4 3 4 3 2 3 3 3 2 3 4 3 2 4 3 3 3 4 7 1 2 1 1 2 1 4 0 1 6
10 9 10 9 9 9 9 8 8 8 7 7 6 5 3 6 4 3 6 7 7 7 7 7 6 6 5 4 4 4 4 6 5 4 3 4 3 2 2 3 3 3 2 4 3 2 0 4 3 3 7 3 2 1 1 2 2 2 4 3 2 5
10 9 9 9 9 9 9 8 8 7 8 7 7 4 3 5 7 5 5 6 7 6 7 6 6 6 5 4 4 5 5 6 5 4 4 4 4 4 4 4 3 4 4 3 4 1 3 3 3 5 7 3 3 1 2 3 4 2 3 1 5 4
12 10 10 11 11 11 10 8 6 8 8 7 6 4 3 3 3 2 5 8 7 6 7 6 6 6 5 4 4 5 5 5 5 4 4 2 2 3 4 4 4 4 4 4 4 2 3 4 5 3 2 4 3 2 2 2 4 3 4 4 4 4
12 11 12 11 11 11 9 7 7 7 8 8 3 6 4 4 5 4 5 6 7 6 6 6 6 6 6 7 5 5 6 6 5 4 3 1 3 4 4 4 4 4 5 5 4 5 4 3 5 4 6 5 4 3 3 2 3 6 5 5 4 4
10 11 12 12 11 11 7 2 5 7 7 5 4 6 9 13 9 6 5 6 6 6 7 6 7 6 6 6 6 5 6 5 6 4 4 4 4 5 5 5 6 5 4 3 3 3 7 2 2 3 2 3 5 5 3 3 2 3 3 5 4 4
12 12 11 11 11 8 9 8 4 6 4 3 5 6 6 8 11 10 7 7 7 6 6 6 7 7 5 5 6 5 5 5 5 4 5 6 6 6 5 6 6 4 4 4 6 5 8 2 1 2 5 4 2 3 4 4 4 4 2 5 8 8
13 14 12 12 11 10 10 12 6 5 1 3 5 5 4 3 6 7 8 7 7 7 7 6 7 7 7 6 6 6 6 6 7 7 7 6 6 6 7 7 6 5 7 6 5 4 5 8 5 3 1 2 3 5 2 5 5 4 2 3 4 6
13 13 12 13 13 11 11 10 7 8 6 5 6 7 4 7 8 7 8 7 7 7 7 6 6 6 6 6 6 7 6 6 6 6 6 7 6 6 7 8 7 6 6 5 3 5 5 4 3 3 4 4 1 2 2 4 4 4 4 5 5 5
13 12 12 13 15 9 10 9 11 9 9 9 9 4 4 6 7 7 6 7 6 6 6 6 6 6 6 6 6 6 6 5 5 5 6 5 5 6 6 6 6 6 6 5 3 3 4 5 3 3 5 2 2 3 1 3 3 6 5 4 4 4
13 12 13 14 13 11 11 10 10 9 8 6 2 8 9 8 7 7 7 8 7 6 7 6 5 6 6 6 5 5 6 6 6 6 6 5 5 6 5 5 6 6 5 5 4 3 4 4 6 3 5 4 3 2 2 0 2 3 3 5 6 5
14 14 14 16 14 13 12 12 12 10 11 8 10 9 10 8 7 7 8 7 7 7 7 6 6 5 5 5 5 5 5 5 5 5 5 5 5 5 6 6 6 6 6 4 4 5 5 6 4 3 4 4 3 1 2 2 3 4 1 3 6 6
16 13 12 15 14 13 11 11 11 10 12 7 5 7 8 9 8 8 8 8 7 7 7 6 6 6 5 5 5 5 5 6 6 5 4 4 5 5 5 6 6 6 6 6 4 3 3 1 5 5 6 3 2 2 1 1 3 6 6 5 4 7
14 11 12 12 13 10 10 10 8 5 5 10 8 6 5 6 7 8 9 8 7 6 6 6 5 5 6 6 4 5 4 4 4 4 4 5 5 5 6 6 5 6 6 6 5 4 3 2 1 3 3 2 2 2 0 2 2 3 3 3 1 6
13 11 11 10 12 10 9 6 7 7 2 4 9 8 7 10 8 10 9 8 7 6 5 5 5 5 4 5 5 4 4 4 4 4 4 4 5 5 5 6 5 5 5 5 5 4 4 3 3 3 4 3 1 1 2 2 2 2 3 4 5 6
13 10 10 10 9 11 9 8 6 7 10 8 12 14 13 13 12 11 9 8 8 6 6 6 6 5 6 6 5 4 4 4 4 3 3 4 4 5 5 5 5 6 5 6 5 4 4 5 5 4 1 5 4 4 4 3 5 3 2 6 6 7
9 6 2 3 7 9 11 10 9 8 8 10 11 10 10 10 10 9 8 8 8 7 7 7 7 6 6 7 5 5 5 5 4 4 3 3 3 4 4 5 6 5 6 5 4 5 4 4 4 4 3 3 4 5 5 7 5 4 4 6 6 6
4 7 6 2 8 8 10 11 10 7 4 7 8 8 7 8 8 9 8 8 7 7 6 6 7 6 8 6 5 5 4 4 4 4 4 4 4 4 5 3 4 5 5 5 5 5 5 4 5 6 5 3 3 4 2 3 6 5 7 5 6 5
8 5 3 4 5 10 9 7 9 11 12 12 7 7 7 7 7 7 8 7 6 6 6 6 6 7 7 6 5 5 5 5 4 3 4 4 4 5 5 5 5 5 6 5 5 6 5 6 5 5 6 5 4 2 3 2 2 3 3 3 3 3
6 6 7 4 4 8 8 8 8 8 10 9 9 9 8 9 8 8 8 7 6 6 6 5 6 6 6 5 5 4 5 5 5 4 3 3 3 3 4 4 5 6 5 6 5 6 5 4 5 7 6 5 3 4 4 1 2 3 4 3 0 2
Wind_Direction
164 163 161 154 152 151 148 144 136 133 135 140 142 142 135 138 139 142 135 146 157 157 151 145 153 147 142 145 131 136 139 142 137 136 131 121 114 109 110 115 119 123 132 139 146 138 131 150 189 208 225 244 261 262 95 122 103 97 95 100 97 95
159 162 150 148 150 151 154 160 153 146 148 146 148 146 146 148 154 150 146 154 150 144 147 143 140 144 145 137 138 139 135 137 139 138 132 130 123 124 131 134 127 138 143 156 159 165 153 156 212 216 228 253 260 175 92 96 105 92 89 91 93 99
161 155 153 152 155 151 159 162 159 158 150 154 149 144 145 151 158 157 160 135 61 29 75 109 129 155 139 133 133 135 130 129 131 133 137 133 141 139 157 175 168 154 167 174 197 173 166 166 201 214 233 237 246 92 78 89 97 94 81 85 93 104
163 155 159 156 158 154 158 162 158 159 153 153 144 144 140 164 151 175 130 93 140 119 73 90 127 131 135 138 134 127 129 130 133 141 144 150 149 162 166 183 202 184 196 197 205 188 173 173 189 190 196 211 139 153 164 148 104 103 104 104 97 108
163 159 150 161 151 156 160 158 157 157 151 145 133 127 135 138 130 79 91 114 166 129 136 142 144 151 153 150 145 141 148 156 159 157 167 161 175 160 189 183 183 209 202 206 194 181 185 169 182 222 181 221 144 173 130 106 88 96 103 105 114 124
158 154 161 116 178 150 156 155 147 140 147 134 101 110 140 158 116 129 127 143 137 167 158 168 163 165 169 152 158 161 166 155 163 155 191 163 168 175 199 189 188 188 206 236 205 186 190 172 163 273 257 171 166 175 155 122 120 125 107 113 127 135
65 66 40 9 262 161 137 124 141 144 146 125 122 143 144 129 134 145 136 124 136 154 160 174 180 172 174 178 175 148 163 166 159 166 174 175 169 182 194 173 180 197 202 226 208 197 197 149 170 229 240 173 182 163 133 114 130 120 121 120 125 140
55 48 131 149 238 118 108 171 133 138 125 116 142 140 146 156 140 142 146 138 142 165 160 170 192 183 197 193 187 170 181 171 151 147 162 152 159 172 192 160 182 205 208 203 217 183 231 135 213 230 166 202 164 149 160 136 116 120 123 123 133 137
142 166 152 122 59 69 209 164 144 138 123 118 117 132 145 143 232 162 174 161 148 156 163 162 212 205 190 186 179 159 156 151 158 142 162 173 171 160 183 186 193 203 188 205 217 207 206 124 269 205 194 185 171 147 164 100 128 128 132 130 135 134
137 137 157 167 144 157 149 155 154 132 125 117 117 125 146 164 184 158 153 153 156 162 144 180 244 222 175 153 154 153 134 137 147 138 158 156 164 172 173 193 180 226 175 215 186 177 147 205 219 238 194 177 145 169 195 145 101 85 140 136 127 137
141 156 148 153 140 142 160 168 129 121 136 129 143 163 162 159 160 167 148 159 177 169 165 165 216 185 147 153 141 148 152 148 159 154 148 145 179 182 182 185 213 203 185 222 157 203 191 175 219 330 356 332 168 246 175 139 107 177 116 130 135 140
159 157 153 138 157 160 183 154 129 136 141 146 163 178 174 161 159 168 164 165 192 203 167 192 181 147 151 145 146 154 149 168 136 144 158 149 170 181 183 173 236 268 309 231 167 205 154 170 131 323 265 82 323 261 225 96 106 145 140 154 142 142
173 158 165 163 168 167 166 145 145 145 140 162 174 155 165 171 159 166 183 188 175 200 193 150 147 140 144 152 143 145 154 148 153 142 136 155 157 191 175 169 205 210 210 219 214 177 200 108 117 207 205 132 195 258 271 121 136 146 126 174 148 143
167 170 164 166 167 166 152 143 147 147 148 173 161 170 155 155 170 167 195 183 199 178 167 141 148 150 154 140 145 161 142 159 133 122 128 159 175 188 187 200 179 200 196 214 199 180 248 68 129 185 154 190 61 255 15 31 83 136 142 158 164 132
164 162 167 159 177 158 155 156 150 160 154 178 161 166 168 157 160 187 177 176 180 152 164 146 151 156 151 144 157 155 159 148 133 162 158 180 192 185 186 207 196 199 164 268 46 19 56 225 71 121 200 69 213 83 80 48 346 50 82 142 168 154
146 153 161 163 165 161 166 159 150 169 158 183 171 173 172 159 182 162 181 158 165 162 163 156 151 155 157 164 168 144 171 112 141 180 173 146 228 192 147 225 233 82 263 191 111 347 149 80 195 126 158 154 55 55 78 320 6 12 60 88 14 59
147 157 157 169 160 163 161 164 148 165 169 179 179 175 176 162 336 182 160 158 153 163 168 155 157 165 172 185 156 159 149 139 160 165 159 164 217 179 147 212 205 197 214 218 165 169 189 182 136 107 103 80 57 47 30 34 7 28 20 66 76 98
147 156 163 171 167 161 165 158 153 169 175 184 181 178 175 174 168 185 181 146 161 155 169 156 168 166 173 204 144 155 140 151 169 157 167 196 203 164 164 170 177 215 217 220 145 227 160 154 134 160 108 59 85 68 18 37 29 16 54 316 202 96
144 157 162 170 166 172 163 162 162 183 173 185 190 159 212 161 211 196 158 146 159 158 162 162 170 165 167 197 149 148 149 165 166 171 170 191 166 167 144 161 190 181 227 218 209 174 148 115 142 190 95 116 62 88 173 184 187 135 115 113 21 102
156 163 161 169 172 178 168 170 170 176 180 192 181 128 265 87 281 189 151 144 160 157 161 165 165 163 165 190 163 161 163 175 168 184 179 203 154 181 168 160 176 191 199 228 99 206 142 155 153 80 93 103 119 162 246 170 109 98 77 57 128 92
167 168 170 174 183 182 171 161 170 185 187 185 161 156 162 128 243 293 194 161 158 168 154 170 167 163 176 170 170 168 166 187 177 190 175 205 114 127 156 177 166 192 192 205 181 154 143 173 138 85 127 121 97 121 113 108 117 91 117 133 118 115
168 172 177 184 184 186 168 171 161 197 184 175 164 154 171 125 231 211 196 153 166 171 163 170 174 172 174 179 183 177 174 181 185 165 150 350 162 157 173 191 168 183 204 205 185 188 81 142 170 182 157 152 133 132 138 131 137 160 156 142 118 125
177 177 185 187 187 187 135 66 208 178 176 161 188 190 170 182 170 198 158 174 171 179 172 176 178 178 182 185 186 181 179 174 184 138 170 175 172 184 183 191 189 199 176 245 176 201 123 234 191 179 85 143 161 154 146 163 151 115 98 97 107 82
182 188 189 190 189 157 114 179 228 145 189 183 189 201 233 153 175 171 169 176 174 178 174 184 174 182 186 177 171 175 181 175 161 151 198 178 181 184 184 195 193 183 140 209 198 187 146 79 341 247 179 193 188 210 165 171 154 114 154 150 147 135
187 190 190 187 184 153 147 160 164 119 98 0 3 304 172 217 164 174 168 176 172 175 179 180 176 182 179 177 174 172 183 176 170 171 195 193 190 199 181 201 189 196 192 203 194 145 164 153 210 238 272 70 221 213 247 128 144 116 140 130 89 104
188 189 188 183 183 167 160 160 148 159 175 146 156 204 216 181 183 156 186 163 165 178 177 173 172 177 165 171 171 173 176 181 173 185 187 200 195 192 194 197 186 196 201 221 200 163 196 201 222 188 174 172 127 143 245 141 167 129 102 76 87 107
187 185 182 184 186 156 155 156 174 173 163 162 171 170 211 193 184 168 164 166 158 174 172 168 172 169 163 166 170 172 171 184 179 186 193 198 202 197 197 200 186 198 200 193 230 209 199 194 195 229 233 211 163 276 252 174 156 133 129 121 91 103
189 185 184 188 183 171 166 171 174 169 169 155 151 170 211 186 174 166 161 161 160 167 169 167 167 171 166 162 170 172 174 181 182 193 196 197 196 194 190 185 187 204 202 189 180 196 229 209 194 210 224 221 200 215 350 328 97 79 136 142 129 101
191 190 189 188 183 179 174 177 173 180 169 164 187 187 176 177 168 163 163 163 162 163 163 160 164 162 164 157 163 171 174 181 186 181 197 193 191 193 193 172 181 197 194 190 210 179 205 226 201 166 210 212 198 68 230 179 120 127 111 153 138 144
200 192 187 186 180 176 167 167 172 175 169 150 148 181 176 165 171 161 163 164 162 160 153 152 156 158 160 155 171 164 178 182 181 186 201 184 184 177 186 180 188 196 194 198 203 195 219 168 241 152 225 185 175 105 253 287 180 177 159 202 159 163
203 197 185 181 176 160 168 168 155 158 163 147 179 171 176 154 160 176 160 164 162 154 156 153 151 156 164 164 161 172 182 172 180 182 198 181 189 183 180 186 184 189 197 205 201 202 208 270 288 243 97 249 142 147 279 112 272 101 94 75 71 152
205 204 200 187 167 166 178 168 156 129 119 160 204 169 175 161 184 166 158 157 154 149 151 140 150 151 183 145 157 172 173 178 180 190 193 186 196 189 182 185 187 187 193 202 203 199 202 186 231 218 147 84 338 67 190 174 151 156 158 134 160 164
226 204 206 188 169 159 139 151 162 151 162 215 202 177 169 172 171 162 160 155 152 157 152 154 163 163 161 156 169 164 173 179 177 187 187 200 183 188 184 187 190 192 196 197 199 203 202 205 208 218 180 147 138 211 207 216 174 162 183 148 182 166
227 216 174 171 153 133 139 166 185 171 173 199 216 175 165 163 160 154 157 157 160 162 163 160 160 164 157 165 173 168 173 179 172 177 178 190 186 190 180 192 185 193 192 193 203 208 203 221 210 194 210 162 183 211 199 194 142 184 193 183 178 172
196 230 177 224 128 134 159 177 180 151 175 258 204 165 160 159 155 155 158 158 164 158 161 159 158 155 156 163 163 167 174 181 177 172 172 174 182 192 196 213 184 186 187 187 198 206 184 214 229 211 207 193 151 231 215 235 165 183 187 195 178 179
172 93 121 199 171 175 182 179 180 161 181 217 185 167 158 155 155 151 152 158 155 156 151 152 147 145 152 158 156 168 170 180 180 172 183 187 189 192 196 198 206 173 193 190 192 206 205 191 210 230 213 195 185 197 215 250 182 151 151 176 212 245
150 135 107 107 178 183 176 175 191 169 178 180 177 163 154 153 150 148 150 156 150 153 141 149 141 145 152 155 162 166 168 158 173 183 185 212 211 213 173 205 213 177 193 209 193 206 195 215 200 207 212 189 221 181 223 201 279 172 166 168 335 258